[[{"header":{"parameterUnit":"m.s-1","parameterCategory":1,"la1":30.2991,"la2":30.254,"lo1":-89.0895,"lo2":-89.0444,"dy":0.0017,"dx":0.0017,"nx":28,"ny":28,"refTime":"2023-10-02T09:00:00:Z","depth":0,"parameterNumber":2,"parameterNumberName":"U-component_of_WINDS"},"data":[0,0,0,0,0,0,0,0,0,0,0,0,0,0,0,0,0,0,0,0,0,0,0,0,0,0,0,0,0,0,0,0,0,0,0,0,0,0,0,0,0,0,0,0,0,0,0,0,0,0,0,0,0,0,0,0,0,0,-2.9786,-2.9786,0,-2.9748,-2.9748,-2.9747,-2.9557,-2.9552,-2.9548,-2.9543,-2.9508,-2.9511,-2.9515,0,0,0,0,0,0,0,0,0,0,0,0,0,-2.9699,-2.9701,-2.9786,-2.9786,-2.9785,-2.9748,-2.9747,-2.9747,-2.9557,-2.9552,-2.9546,-2.9541,-2.9507,-2.9511,-2.9515,0,0,0,0,0,0,0,0,0,0,0,0,0,-2.9707,-2.9702,-2.9786,-2.9686,-2.9677,-2.9748,-2.9747,-2.9747,-2.9559,-2.9552,-2.9545,-2.9539,-2.9506,-2.9511,-2.9516,-2.9682,0,0,-2.9531,-2.9533,0,0,0,0,0,0,0,0,-2.9706,-2.971,-2.9701,-2.9693,-2.9683,-2.965,-2.9703,-2.9725,-2.956,-2.9604,-2.9543,-2.9535,-2.9561,-2.9561,-2.9569,-2.968,-2.9678,-2.9531,-2.9534,-2.9536,-2.9538,0,0,0,0,0,0,0,-2.9706,-2.971,-2.9771,-2.9702,-2.969,-2.9644,-2.9638,-2.9707,-2.9621,-2.9599,-2.9585,-2.9583,-2.9555,-2.9565,-2.9567,-2.9678,-2.9531,-2.9535,-2.9538,-2.954,-2.9923,-2.993,0,0,0,0,0,0,-2.9719,-2.9711,-2.9772,-2.977,-2.9678,-2.9651,-2.9644,-2.9668,-2.962,-2.9606,-2.9589,-2.9575,-2.956,-2.9561,-2.9565,-2.9756,-2.9536,-2.9541,-2.9544,-2.9916,-2.9925,-2.9933,0,0,0,0,0,0,-2.9718,-2.9726,-2.9774,-2.9737,-2.9739,-2.966,-2.9688,-2.967,-2.968,-2.9612,-2.9596,-2.9615,-2.9554,-2.9558,-2.9654,-2.9752,-2.9543,-2.9547,-2.9908,-2.9919,-2.9929,-3.014,0,0,0,0,0,0,-2.9716,-2.9727,-2.9789,-2.974,-2.9742,-2.9863,-2.9694,-2.9674,-2.9688,-2.9669,-2.9632,-2.9619,-2.9549,-2.9647,-2.9659,-2.9755,-2.9551,-2.9898,-2.9913,-2.9925,-3.0124,-3.0157,-3.0185,0,0,0,0,0,-2.9714,-2.985,-2.9793,-2.9801,-2.9817,-2.9869,-2.987,-2.9786,-2.9697,-2.9759,-2.9715,-2.962,-2.974,-2.9659,-2.967,-2.9769,-2.9892,-2.9909,-2.9924,-3.011,-3.015,-3.0184,0,0,0,0,0,0,-2.9915,-2.9842,-2.9777,-2.9902,-2.9893,-2.9837,-2.9912,-2.9831,-2.9848,-2.983,-2.9726,-2.9719,-2.983,-2.9809,-2.972,-2.9927,-2.98,-2.9819,-2.9937,-2.9975,-3.0005,-3.0007,-2.9555,0,0,0,0,0,-2.9973,-3.002,-2.9955,-3.0071,-3.007,-2.9993,-3.0012,-2.9948,-2.9934,-2.993,-2.9893,-2.9886,-2.9921,-2.9946,-2.9975,-3.012,-3.0109,-3.0194,-3.0224,-3.025,-3.0268,-3.0343,-3.0379,-2.9986,-2.9986,-2.9986,0,0,-3.0095,-3.0061,-3.0098,-3.0111,-3.0096,-3.0148,-2.999,-3.0052,-3.009,-2.994,-3.0027,-3.0001,-2.9985,-3.0106,-3.0158,-3.0092,-3.0374,-3.027,-3.0291,-3.0295,-3.0363,-3.0401,-3.0434,-2.9997,-2.9995,-2.9993,0,0,-3.0344,-3.0323,-3.0417,-3.0406,-3.0385,-3.0332,-3.0356,-3.0311,-3.0287,-3.0374,-3.0262,-3.0306,-3.0369,-3.0363,-3.0368,-3.0614,-3.0528,-3.0627,-3.0786,-3.086,-3.0891,-3.0918,-3.1007,-3.104,-3.0645,-3.0645,-3.0646,0,-3.0498,-3.0571,-3.0477,-3.0545,-3.0555,-3.042,-3.0515,-3.0509,-3.05,-3.051,-3.0436,-3.0512,-3.0492,-3.061,-3.067,-3.0679,-3.0702,-3.063,-3.0894,-3.092,-3.0944,-3.1027,-3.1061,-3.0657,-3.0656,-3.0655,-3.0654,0,-3.0762,-3.0814,-3.0893,-3.0886,-3.0904,-3.0987,-3.0906,-3.0936,-3.087,-3.0826,-3.0916,-3.0887,-3.0908,-3.0931,-3.0868,-3.1041,-3.1,-3.0913,-3.0782,-3.0996,-3.1072,-3.1103,-3.0675,-3.067,-3.0667,-3.0664,0,0,-3.1136,-3.1075,-3.1106,-3.1101,-3.1068,-3.1107,-3.1184,-3.1203,-3.1231,-3.1229,-3.1291,-3.1348,-3.1266,-3.1272,-3.1207,-3.1273,-3.147,-3.1176,-3.1174,-3.1232,-3.1659,-3.1725,-3.1764,-3.1413,-3.1419,-3.1423,-3.166,0,-3.1373,-3.1499,-3.1416,-3.1556,-3.1603,-3.1476,-3.1542,-3.1531,-3.1492,-3.1527,-3.1484,-3.1526,-3.1415,-3.1417,-3.1476,-3.1434,-3.1555,-3.1416,-3.1471,-3.1474,-3.1479,-3.1803,-3.1874,-3.2099,-3.1689,-3.1694,-3.1698,0,-3.1667,-3.1677,-3.1821,-3.1779,-3.1795,-3.1857,-3.1867,-3.1903,-3.1887,-3.1854,-3.1861,-3.178,-3.1853,-3.1724,-3.1824,-3.1732,-3.1749,-3.1732,-3.1739,-3.1741,-3.1599,-3.1814,-3.2168,-3.2203,-3.1744,-3.174,-3.1737,0,-3.1926,-3.1975,-3.2067,-3.2067,-3.202,-3.2066,-3.2049,-3.2026,-3.2043,-3.2053,-3.2063,-3.2082,-3.2093,-3.2111,-3.2037,-3.195,-3.2147,-3.2013,-3.2123,-3.2125,-3.217,-3.2168,-3.2532,-3.2182,-3.2182,-3.2181,-3.218,0,-3.22,-3.2293,-3.2183,-3.224,-3.234,-3.2245,-3.2348,-3.2318,-3.2299,-3.2348,-3.224,-3.229,-3.2189,-3.2229,-3.2172,-3.2264,-3.227,-3.2246,-3.223,-3.2256,-3.2259,-3.2266,-3.2248,-3.219,-3.2188,-3.2186,-3.2185,0,-3.2505,-3.2435,-3.2527,-3.2475,-3.2464,-3.2541,-3.2496,-3.2548,-3.2501,-3.2565,-3.2575,-3.2503,-3.2544,-3.2472,-3.2505,-3.2466,-3.2595,-3.2554,-3.26,-3.2588,-3.2702,-3.2693,-3.3084,-3.313,-3.2751,-3.2755,-3.2758,0,-3.2684,-3.2753,-3.2708,-3.2732,-3.2721,-3.2762,-3.2778,-3.2688,-3.2709,-3.2697,-3.275,-3.2781,-3.2802,-3.2873,-3.2825,-3.2849,-3.2809,-3.2944,-3.2812,-3.2836,-3.2811,-3.2808,-3.2814,-3.2971,-3.2976,-3.298,-3.2983,0,-3.301,-3.2972,-3.2998,-3.3014,-3.3035,-3.3043,-3.3043,-3.307,-3.2974,-3.3005,-3.3044,-3.306,-3.3092,-3.3126,-3.3138,-3.3121,-3.3038,-3.3025,-3.3052,-3.3079,-3.3102,-3.3091,-3.2674,-3.3016,-3.3013,-3.301,-3.3009,-3.3007,-3.3257,-3.3312,-3.3289,-3.3322,-3.3312,-3.3315,-3.336,-3.3319,-3.335,-3.3369,-3.3314,-3.3367,-3.335,-3.3358,-3.3351,-3.3391,-3.3332,-3.3371,-3.338,-3.3391,-3.3409,-3.3096,-3.3394,-3.3392,-3.3392,-3.3391,-3.339,0,-3.3577,-3.3555,-3.3587,-3.359,-3.3617,-3.3533,-3.3529,-3.3558,-3.3605,-3.3596,-3.3618,-3.3664,-3.3696,-3.365,-3.3674,-3.3716,-3.3678,-3.3725,-3.3721,-3.3719,-3.3462,-3.3436,-3.3755,-3.3755,-3.3755,-3.3755,-3.3755,-3.3755,-3.3746,-3.3834,-3.3794,-3.3877,-3.3855,-3.3904,-3.3909,-3.3912,-3.3904,-3.396,-3.3985,-3.3954,-3.393,-3.3952,-3.3978,-3.3963,-3.3978,-3.4039,-3.4012,-3.3772,-3.3737,-3.3703,-3.3678,-3.4043,-3.4043,-3.4265,-3.4267,-3.4268]},{"header":{"parameterUnit":"m.s-1","parameterCategory":1,"la1":30.2991,"la2":30.254,"lo1":-89.0895,"lo2":-89.0444,"dy":0.0017,"dx":0.0017,"nx":28,"ny":28,"refTime":"2023-10-02T09:00:00:Z","depth":0,"parameterNumber":3,"parameterNumberName":"V-component_of_WINDS"},"data":[0,0,0,0,0,0,0,0,0,0,0,0,0,0,0,0,0,0,0,0,0,0,0,0,0,0,0,0,0,0,0,0,0,0,0,0,0,0,0,0,0,0,0,0,0,0,0,0,0,0,0,0,0,0,0,0,0,0,-1.075,-1.0752,0,-1.0869,-1.0871,-1.0872,-1.0994,-1.0996,-1.0997,-1.0999,-1.1115,-1.1116,-1.1118,0,0,0,0,0,0,0,0,0,0,0,0,0,-1.0622,-1.0623,-1.075,-1.0752,-1.0753,-1.0869,-1.0871,-1.0873,-1.0994,-1.0996,-1.0998,-1.1,-1.1114,-1.1116,-1.1118,0,0,0,0,0,0,0,0,0,0,0,0,0,-1.0702,-1.0624,-1.075,-1.0828,-1.0836,-1.0869,-1.0871,-1.0873,-1.0993,-1.0996,-1.0998,-1.1001,-1.1114,-1.1116,-1.1118,-1.1082,0,0,-1.1125,-1.1126,0,0,0,0,0,0,0,0,-1.0698,-1.0707,-1.0815,-1.0823,-1.0832,-1.092,-1.0868,-1.0943,-1.0993,-1.0933,-1.0999,-1.1002,-1.1047,-1.1055,-1.1072,-1.1087,-1.1092,-1.1125,-1.1127,-1.1128,-1.1128,0,0,0,0,0,0,0,-1.0692,-1.0703,-1.0797,-1.0816,-1.0827,-1.0855,-1.0869,-1.0883,-1.0975,-1.0939,-1.0948,-1.0961,-1.1052,-1.1069,-1.1076,-1.1094,-1.1125,-1.1127,-1.1129,-1.113,-1.1084,-1.1081,0,0,0,0,0,0,-1.0675,-1.0697,-1.0793,-1.0801,-1.077,-1.0855,-1.0871,-1.0889,-1.0975,-1.0991,-1.0958,-1.0966,-1.1064,-1.1073,-1.108,-1.1042,-1.1128,-1.113,-1.1131,-1.1086,-1.1083,-1.108,0,0,0,0,0,0,-1.0672,-1.0683,-1.0789,-1.0752,-1.0767,-1.0855,-1.0873,-1.089,-1.0907,-1.099,-1.1006,-1.0959,-1.1067,-1.1077,-1.1081,-1.1048,-1.1131,-1.1133,-1.1089,-1.1085,-1.1082,-1.0965,0,0,0,0,0,0,-1.0668,-1.0681,-1.0669,-1.075,-1.0769,-1.0788,-1.0872,-1.089,-1.0911,-1.0922,-1.0995,-1.1009,-1.1069,-1.1077,-1.1083,-1.1052,-1.1135,-1.1093,-1.1088,-1.1083,-1.0973,-1.0958,-1.0946,0,0,0,0,0,-1.0663,-1.0631,-1.0668,-1.0679,-1.0757,-1.0787,-1.0797,-1.0868,-1.0908,-1.0896,-1.0949,-1.1007,-1.1051,-1.1076,-1.1084,-1.1053,-1.1095,-1.1089,-1.1083,-1.0979,-1.0961,-1.0946,0,0,0,0,0,0,-1.0542,-1.0643,-1.0685,-1.0679,-1.0723,-1.0807,-1.0794,-1.0848,-1.088,-1.0888,-1.0974,-1.0989,-1.0982,-1.1019,-1.1045,-1.1022,-1.1081,-1.1076,-1.0998,-1.0982,-1.0969,-1.0959,-1.1137,0,0,0,0,0,-1.0515,-1.0532,-1.0619,-1.0605,-1.0626,-1.0706,-1.0721,-1.0773,-1.0821,-1.084,-1.0894,-1.0937,-1.096,-1.0974,-1.1,-1.0979,-1.0995,-1.0962,-1.0949,-1.0937,-1.0931,-1.0921,-1.0907,-1.1061,-1.1061,-1.1061,0,0,-1.0458,-1.0516,-1.0521,-1.0582,-1.0623,-1.0637,-1.0721,-1.0733,-1.0743,-1.0842,-1.0848,-1.0889,-1.0943,-1.0933,-1.0932,-1.0963,-1.0893,-1.093,-1.092,-1.0921,-1.0914,-1.0899,-1.0886,-1.1057,-1.1058,-1.1059,0,0,-1.0362,-1.0408,-1.0401,-1.044,-1.0501,-1.0555,-1.0552,-1.0628,-1.0659,-1.0668,-1.0742,-1.0755,-1.0794,-1.0829,-1.0852,-1.0768,-1.0822,-1.0775,-1.0703,-1.0692,-1.068,-1.067,-1.0637,-1.0625,-1.0769,-1.0769,-1.0769,0,-1.0283,-1.031,-1.039,-1.0397,-1.0421,-1.0513,-1.0505,-1.0538,-1.0603,-1.0616,-1.0652,-1.0702,-1.0745,-1.0744,-1.0724,-1.074,-1.0738,-1.0766,-1.0676,-1.0666,-1.0657,-1.0628,-1.0616,-1.0763,-1.0763,-1.0764,-1.0765,0,-1.0209,-1.0226,-1.0212,-1.0275,-1.0297,-1.0297,-1.0375,-1.0387,-1.0437,-1.0486,-1.0492,-1.0547,-1.0585,-1.059,-1.0637,-1.0595,-1.0612,-1.066,-1.0721,-1.0635,-1.0608,-1.0598,-1.0754,-1.0756,-1.0758,-1.0759,0,0,-1.0038,-1.0146,-1.0139,-1.0168,-1.0242,-1.0255,-1.0258,-1.0298,-1.0306,-1.0348,-1.035,-1.0382,-1.0426,-1.0452,-1.0505,-1.0495,-1.0423,-1.0544,-1.0547,-1.0518,-1.0377,-1.0338,-1.0324,-1.046,-1.0458,-1.0457,-1.0371,0,-0.9953,-0.9965,-1.0037,-1.0028,-1.0043,-1.0131,-1.0133,-1.0177,-1.0223,-1.0241,-1.0292,-1.0312,-1.0371,-1.0386,-1.0381,-1.0433,-1.0395,-1.044,-1.046,-1.046,-1.0442,-1.0311,-1.0271,-1.0188,-1.0362,-1.036,-1.0359,0,-0.9855,-0.9892,-0.9884,-0.9958,-0.9967,-0.9968,-1.0009,-1.0026,-1.0077,-1.0111,-1.014,-1.02,-1.0205,-1.0263,-1.0271,-1.0299,-1.0312,-1.0339,-1.0337,-1.034,-1.0402,-1.0307,-1.0163,-1.0149,-1.0344,-1.0345,-1.0346,0,-0.9728,-0.9777,-0.9778,-0.98,-0.9886,-0.9884,-0.992,-0.9974,-0.9992,-1.0028,-1.0041,-1.0075,-1.0094,-1.0118,-1.0185,-1.0222,-1.0183,-1.0248,-1.0209,-1.0207,-1.0195,-1.0195,-1.0049,-1.0207,-1.0207,-1.0208,-1.0208,0,-0.9624,-0.9615,-0.9722,-0.9723,-0.9715,-0.9797,-0.9786,-0.983,-0.9877,-0.9886,-0.9964,-0.997,-1.0059,-1.0074,-1.0126,-1.0123,-1.0131,-1.0157,-1.017,-1.0148,-1.0145,-1.0156,-1.0162,-1.0204,-1.0205,-1.0206,-1.0206,0,-0.948,-0.9552,-0.9559,-0.964,-0.966,-0.9651,-0.9719,-0.9722,-0.9773,-0.9783,-0.979,-0.9869,-0.9891,-0.9961,-1.0,-1.0035,-1.0015,-1.0043,-0.9998,-1.0006,-0.9963,-0.9965,-0.9817,-0.9801,-0.9971,-0.9969,-0.9968,0,-0.9408,-0.9404,-0.9485,-0.9497,-0.953,-0.9548,-0.9568,-0.9649,-0.9666,-0.9724,-0.9718,-0.9747,-0.9775,-0.9805,-0.9865,-0.9895,-0.9922,-0.9868,-0.9927,-0.9905,-0.9918,-0.9917,-0.9916,-0.9854,-0.9852,-0.985,-0.9849,0,-0.9271,-0.9307,-0.9334,-0.9372,-0.9394,-0.9428,-0.9466,-0.9471,-0.9561,-0.9576,-0.9601,-0.9622,-0.9662,-0.9689,-0.9729,-0.9763,-0.9819,-0.983,-0.9823,-0.9799,-0.9772,-0.9784,-0.996,-0.9833,-0.9834,-0.9836,-0.9836,-0.9837,-0.916,-0.9159,-0.9216,-0.9243,-0.928,-0.9314,-0.932,-0.9373,-0.9395,-0.9436,-0.9482,-0.95,-0.955,-0.961,-0.964,-0.9654,-0.9685,-0.9674,-0.9671,-0.9666,-0.9655,-0.9772,-0.9662,-0.9662,-0.9663,-0.9663,-0.9664,0,-0.9025,-0.9066,-0.909,-0.9142,-0.9162,-0.9217,-0.9261,-0.9274,-0.929,-0.9333,-0.9359,-0.9386,-0.9412,-0.9474,-0.9505,-0.9504,-0.9531,-0.951,-0.9509,-0.9516,-0.9627,-0.9629,-0.9488,-0.9488,-0.9488,-0.9488,-0.9488,-0.9488,-0.8957,-0.8959,-0.9001,-0.9021,-0.9062,-0.9082,-0.9103,-0.9133,-0.9168,-0.9196,-0.9218,-0.926,-0.9309,-0.9345,-0.9371,-0.9388,-0.9395,-0.9364,-0.9389,-0.9491,-0.9508,-0.9524,-0.9527,-0.9366,-0.9366,-0.9277,-0.9276,-0.9276]}]]